Regional Weather Roundup
Issued by NWS

Home | Current Version | Previous Version | Graphics & Text | Print | Product List | Glossary On
Versions: 1 2 3 4 5 6 7 8 9 10 11 12 13 14 15 16 17 18 19 20 21 22 23 24 25 26 27 28 29 30 31 32 33 34 35 36 37 38 39 40 41 42 43 44 45 46 47 48 49 50
000
ASUS45 KSLC 301810
RWRUT

UTAH REGIONAL WEATHER ROUNDUP
NATIONAL WEATHER SERVICE SALT LAKE CITY UT
1200 PM MDT SAT AUG 30 2014

UTZ001>011-023>025-301900-

NORTHERN UTAH

CITY           SKY/WX    TMP DP  RH WIND       PRES   REMARKS
HILL AFB       CLOUDY    75  42  31 S7        30.02R
LOGAN          PTSUNNY   77  39  25 W16G36    29.96R
OGDEN          CLOUDY    75  44  33 S10       29.99R
PROVO AIRPORT  CLOUDY    72  52  49 CALM      30.03F
SALT LAKE CITY CLOUDY    77  40  26 SE7       29.97R
VERNAL         CLOUDY    68  49  50 CALM      30.07F
WENDOVER       PTSUNNY   81  36  19 W3        29.95F
HEBER CITY     CLOUDY    70  46  43 CALM      30.07F
WEST JORDAN    CLOUDY    75  48  38 S8G16     30.01R

$$

UTZ012>022-026-027-301900-

SOUTHERN UTAH

CITY           SKY/WX    TMP DP  RH WIND       PRES   REMARKS
BRYCE CANYON   CLOUDY    73  36  25 SW13      30.28S
CEDAR CITY     CLOUDY    83  32  16 S16G22    30.11R
MILFORD        CLOUDY    81  36  19 S17       30.04F
MOAB/CYNLANDS  SUNNY     81  43  26 SE7       30.02F
PRICE          CLOUDY    74  39  28 CALM      30.13F
ST GEORGE      CLOUDY    82  43  24 CALM      29.97S

$$

REGIONAL REPORTS     COLORADO/ARIZONA

CITY           SKY/WX    TMP DP  RH WIND       PRES   REMARKS
CRAIG, CO      MOSUNNY   75  48  38 VRB3      30.10F
GRAND JUNCTION MOSUNNY   74  47  38 SE13      30.06F
RIFLE          MOSUNNY   71  49  45 CALM      30.11F
MONTROSE       SUNNY     75  48  38 NW9       30.16F
CORTEZ         SUNNY     82  38  20 SW14      30.19S
PAGE, AZ       MOSUNNY   85  38  18 VRB3      30.05F
GRAND CANYON   MOSUNNY   79  36  21 SW16G22   30.25S
KINGMAN        SUNNY     95  33  11 SW12      29.97F HX  90
FLAGSTAFF      SUNNY     77  38  24 SW14G22   30.27F

$$

REGIONAL REPORTS    NEVADA/IDAHO/WYOMING

CITY           SKY/WX    TMP DP  RH WIND       PRES   REMARKS
LAS VEGAS, NV  PTSUNNY   95  34  11 VRB3      29.82S HX  90
ELY            PTSUNNY   76  31  19 VRB6      30.10F
ELKO           SUNNY     78  35  21 SW10G22   30.02F
POCATELLO, ID  MOSUNNY   69  46  43 SW23      29.96F
BURLEY         PTSUNNY   68  46  45 W12G24    29.96R
EVANSTON, WY   PTSUNNY   69  36  29 W24G38    30.13R
ROCK SPRINGS   MOSUNNY   76  34  21 W25G38    30.07F

$$



USA.gov is the U.S. government's official web portal to all federal, state and local government web resources and services.